Terminal Aerodrome Forecast
Issued by NWS

Home | Current Version | Previous Version | Graphics & Text | Print | Product List | Glossary On
Versions: 1 2 3 4 5 6 7 8 9 10 11 12 13 14 15 16 17 18 19 20 21 22 23 24 25 26 27 28
000
FTUS45 KGGW 272300
TAFOLF
TAF
KOLF 272335Z 2800/2824 VRB04KT P6SM VCSH SCT030 OVC060
     FM280200 09005KT 3SM -SN SCT010 OVC025
     FM281400 05012KT P6SM VCSH SCT015 BKN030
     FM281900 05010KT P6SM SCT060 BKN200=

USA.gov is the U.S. government's official web portal to all federal, state and local government web resources and services.